EW6438 Weather Reports


time (UTC)temp
C
wind
direction
speed
KPH
gust
KPH
rain 1hr
cm
rain 24hr
cm
rain mn
cm
humidity
%
barometer
mb
20260510022504 8 188 6.4 16.1 0.00 0.00 0.00 89 1006.8
20260510022008 8 211 8.0 16.1 0.00 0.00 0.00 89 1006.7
20260510021516 8 78 4.8 12.9 0.00 0.00 0.00 89 1006.8
20260510021004 8 119 3.2 12.9 0.00 0.00 0.00 89 1006.8
20260510020507 8 83 3.2 12.9 0.00 0.00 0.00 89 1006.7
20260510020022 8 180 4.8 16.1 0.00 0.00 0.00 89 1006.8
20260510015505 8 103 8.0 16.1 0.00 0.00 0.00 89 1006.8
20260510015008 8 92 4.8 12.9 0.00 0.00 0.00 89 1006.7
20260510014523 8 99 6.4 14.5 0.00 0.00 0.00 89 1006.7
20260510014009 8 98 3.2 14.5 0.00 0.00 0.00 89 1006.9
20260510013505 8 114 6.4 14.5 0.00 0.00 0.00 89 1006.9
20260510013023 8 352 4.8 16.1 0.00 0.00 0.00 89 1006.9
20260510012508 8 350 4.8 16.1 0.00 0.00 0.00 89 1006.8
20260510012014 8 121 6.4 16.1 0.00 0.00 0.00 90 1006.8
20260510011513 8 170 6.4 16.1 0.00 0.00 0.00 90 1006.8
20260510011002 8 146 1.6 11.3 0.00 0.00 0.00 90 1006.7
20260510010504 8 115 4.8 12.9 0.00 0.00 0.00 90 1006.7
20260510010014 8 144 4.8 12.9 0.00 0.00 0.00 89 1006.6
20260510005507 8 163 1.6 11.3 0.00 0.00 0.00 90 1006.5
20260510005003 8 115 1.6 11.3 0.00 0.00 0.00 89 1006.4
20260510004509 8 127 3.2 14.5 0.00 0.00 0.00 89 1006.3
20260510004005 8 97 6.4 14.5 0.00 0.00 0.00 89 1006.3
20260510003511 8 105 6.4 14.5 0.00 0.00 0.00 89 1006.3
20260510003006 8 153 3.2 14.5 0.00 0.00 0.00 89 1006.3
20260510002505 8 148 4.8 12.9 0.00 0.00 0.00 89 1006.2
20260510002007 8 152 3.2 12.9 0.00 0.00 0.00 89 1006.2
20260510001510 8 344 3.2 12.9 0.00 0.00 0.00 89 1006.2
20260510001002 8 69 4.8 12.9 0.00 0.00 0.00 89 1006.3
20260510000501 8 133 3.2 12.9 0.00 0.00 0.00 89 1006.3
20260510000013 8 124 3.2 9.7 0.00 0.00 0.00 89 1006.2
20260509235502 8 85 1.6 11.3 0.00 0.00 0.00 89 1006.2
20260509235008 8 78 4.8 11.3 0.00 0.00 0.00 89 1006.1
20260509234532 8 101 1.6 11.3 0.00 0.00 0.00 89 1006.4
20260509234005 8 114 3.2 9.7 0.00 0.00 0.00 89 1006.5
20260509233501 8 170 1.6 9.7 0.00 0.00 0.00 89 1006.6
20260509233014 8 146 4.8 9.7 0.00 0.00 0.00 89 1006.6
20260509232507 8 219 3.2 9.7 0.00 0.00 0.00 89 1006.7
20260509232003 8 117 1.6 9.7 0.00 0.00 0.00 89 1006.8
20260509231506 8 123 3.2 9.7 0.00 0.00 0.00 88 1006.7
20260509231002 8 224 3.2 11.3 0.00 0.00 0.00 89 1006.7
20260509230504 8 116 4.8 11.3 0.00 0.00 0.00 88 1006.6
20260509230008 8 130 3.2 8.0 0.00 0.00 0.00 88 1006.5
20260509225505 8 183 3.2 16.1 0.00 0.00 0.00 88 1006.5
20260509225010 8 218 8.0 16.1 0.00 0.00 0.00 88 1006.4
20260509224505 8 174 4.8 16.1 0.00 0.00 0.00 88 1006.5
20260509224002 8 165 4.8 14.5 0.00 0.00 0.00 88 1006.4
20260509223507 8 31 4.8 14.5 0.00 0.00 0.00 89 1006.3
20260509223020 8 142 3.2 12.9 0.00 0.00 0.00 89 1006.4
20260509222502 8 67 4.8 11.3 0.00 0.00 0.00 89 1006.4
20260509222005 8 97 6.4 12.9 0.00 0.00 0.00 89 1006.4
20260509221519 8 131 6.4 12.9 0.00 0.00 0.00 89 1006.5
20260509221010 8 149 4.8 12.9 0.00 0.00 0.00 89 1006.5
20260509220503 8 34 3.2 14.5 0.00 0.00 0.00 89 1006.5
20260509220013 8 136 6.4 14.5 0.00 0.00 0.00 90 1006.5
20260509215506 8 146 6.4 12.9 0.00 0.00 0.00 90 1006.4
20260509215003 8 167 3.2 14.5 0.00 0.00 0.00 90 1006.4
20260509214515 8 151 6.4 14.5 0.00 0.00 0.00 90 1006.4
20260509214010 7 166 6.4 12.9 0.00 0.00 0.00 90 1006.4
20260509213506 7 204 3.2 9.7 0.00 0.00 0.00 90 1006.5
20260509213010 7 187 3.2 9.7 0.00 0.00 0.00 90 1006.7
20260509212506 7 100 3.2 12.9 0.00 0.00 0.00 90 1006.8
20260509212009 7 103 4.8 19.3 0.00 0.00 0.00 90 1006.9
20260509211510 7 132 6.4 19.3 0.00 0.00 0.00 90 1006.8
20260509211006 7 9 1.6 9.7 0.00 0.00 0.00 90 1006.9
20260509210506 7 84 4.8 9.7 0.00 0.00 0.00 90 1006.9
20260509210030 7 337 3.2 11.3 0.00 0.00 0.00 90 1007.0
20260509205503 7 263 3.2 14.5 0.00 0.00 0.00 89 1007.0
20260509205003 7 84 8.0 14.5 0.00 0.00 0.00 89 1006.9
20260509204523 7 237 1.6 14.5 0.00 0.00 0.00 89 1006.8
20260509204003 7 53 6.4 17.7 0.00 0.00 0.00 89 1006.8
20260509203507 7 128 3.2 17.7 0.00 0.00 0.00 89 1006.9
20260509203020 7 126 4.8 17.7 0.00 0.00 0.00 88 1006.9
20260509202506 7 191 1.6 9.7 0.00 0.00 0.00 88 1007.0
20260509202008 7 154 4.8 9.7 0.00 0.00 0.00 88 1007.0
20260509201517 7 170 3.2 6.4 0.00 0.00 0.00 89 1007.2
20260509201005 7 173 1.6 6.4 0.00 0.00 0.00 88 1007.2
20260509200508 7 184 3.2 6.4 0.00 0.00 0.00 88 1007.2
20260509200037 7 206 3.2 8.0 0.00 0.00 0.00 88 1007.3
20260509195509 7 191 3.2 11.3 0.00 0.00 0.00 87 1007.3
20260509195010 7 122 3.2 11.3 0.00 0.00 0.00 87 1007.3
20260509194520 7 98 4.8 11.3 0.00 0.00 0.00 86 1007.3
20260509194007 7 158 3.2 12.9 0.00 0.00 0.00 86 1007.4
20260509193507 7 114 3.2 12.9 0.00 0.00 0.00 86 1007.4
20260509193013 7 150 4.8 11.3 0.00 0.00 0.00 85 1007.5
20260509192504 7 127 1.6 11.3 0.00 0.00 0.00 85 1007.6
20260509192006 7 107 0.0 6.4 0.00 0.00 0.00 85 1007.6
20260509191517 7 113 3.2 9.7 0.00 0.00 0.00 85 1007.5
20260509191008 7 157 3.2 9.7 0.00 0.00 0.00 85 1007.6
20260509190504 7 159 3.2 9.7 0.00 0.00 0.00 85 1007.7
20260509190024 7 181 3.2 14.5 0.00 0.00 0.00 86 1007.7
20260509185508 7 113 6.4 14.5 0.00 0.00 0.00 86 1007.7
20260509185005 7 129 4.8 12.9 0.00 0.00 0.00 85 1007.7
20260509184534 7 125 4.8 12.9 0.00 0.00 0.00 85 1007.7
20260509184008 7 83 3.2 6.4 0.00 0.00 0.00 85 1007.7
20260509183510 7 166 3.2 9.7 0.00 0.00 0.00 85 1007.7
20260509183016 7 163 4.8 12.9 0.00 0.00 0.00 84 1007.8
20260509182503 7 104 4.8 12.9 0.00 0.00 0.00 82 1007.8
20260509182007 7 135 4.8 14.5 0.00 0.00 0.00 81 1007.9
20260509181511 8 121 6.4 12.9 0.00 0.00 0.00 80 1007.8
20260509181007 8 168 4.8 11.3 0.00 0.00 0.00 79 1007.8
20260509180508 8 170 3.2 12.9 0.00 0.00 0.00 78 1007.7
20260509180023 8 122 4.8 12.9 0.00 0.00 0.00 77 1007.8
20260509175510 8 202 4.8 14.5 0.00 0.00 0.00 76 1007.8
20260509175009 8 199 8.0 14.5 0.00 0.00 0.00 76 1007.8
20260509174523 8 145 6.4 16.1 0.00 0.00 0.00 76 1007.9
20260509174003 8 158 8.0 16.1 0.00 0.00 0.00 75 1007.9
20260509173507 8 142 4.8 12.9 0.00 0.00 0.00 76 1008.0
20260509173025 8 116 3.2 11.3 0.00 0.00 0.00 75 1008.0
20260509172510 8 113 4.8 12.9 0.00 0.00 0.00 75 1008.0
20260509172007 8 112 6.4 12.9 0.00 0.00 0.00 74 1008.0
20260509171519 8 153 6.4 11.3 0.00 0.00 0.00 74 1008.1
20260509171003 8 189 1.6 12.9 0.00 0.00 0.00 74 1008.0
20260509170509 8 83 6.4 17.7 0.00 0.00 0.00 73 1008.1
20260509170020 8 144 6.4 17.7 0.00 0.00 0.00 74 1008.1
20260509165507 8 196 6.4 11.3 0.00 0.00 0.00 75 1008.3
20260509165009 8 267 3.2 12.9 0.00 0.00 0.00 75 1008.3
20260509164515 8 180 4.8 12.9 0.00 0.00 0.00 74 1008.4
20260509164008 8 161 4.8 12.9 0.00 0.00 0.00 75 1008.5
20260509163508 8 125 3.2 11.3 0.00 0.00 0.00 76 1008.6
20260509163032 8 227 1.6 16.1 0.00 0.00 0.00 76 1008.6
20260509162508 8 207 4.8 16.1 0.00 0.00 0.00 76 1008.7
20260509162012 8 137 4.8 16.1 0.00 0.00 0.00 76 1008.6
20260509161526 8 135 6.4 14.5 0.00 0.00 0.00 75 1008.7
20260509161005 8 89 4.8 14.5 0.00 0.00 0.00 76 1008.7
20260509160510 7 40 6.4 14.5 0.00 0.00 0.00 77 1008.8
20260509160028 7 173 4.8 11.3 0.00 0.00 0.00 78 1008.9
20260509155506 7 181 4.8 11.3 0.00 0.00 0.00 78 1009.0
20260509155004 7 226 3.2 12.9 0.00 0.00 0.00 78 1009.1
20260509154522 7 133 1.6 12.9 0.00 0.00 0.00 77 1009.2
20260509154002 7 164 1.6 9.7 0.00 0.00 0.00 80 1009.3
20260509153503 7 186 3.2 9.7 0.00 0.00 0.00 80 1009.3
20260509153002 7 172 3.2 6.4 0.00 0.00 0.00 80 1009.4
20260509152502 7 172 3.2 9.7 0.00 0.00 0.00 80 1009.4
20260509152004 7 225 3.2 14.5 0.00 0.00 0.00 79 1009.4
20260509151508 7 171 6.4 14.5 0.00 0.00 0.00 77 1009.4
20260509151003 8 152 4.8 11.3 0.00 0.00 0.00 75 1009.5
20260509150505 8 155 4.8 14.5 0.00 0.00 0.00 73 1009.4
20260509150010 8 197 4.8 14.5 0.00 0.00 0.00 71 1009.4
20260509145507 8 57 4.8 14.5 0.00 0.00 0.00 71 1009.2
20260509145002 8 197 6.4 14.5 0.00 0.00 0.00 70 1009.3
20260509144512 8 82 4.8 14.5 0.00 0.00 0.00 68 1009.3
20260509144006 8 138 6.4 16.1 0.00 0.00 0.00 68 1009.4
20260509143503 8 215 8.0 17.7 0.00 0.00 0.00 67 1009.3
20260509143010 8 97 6.4 17.7 0.00 0.00 0.00 66 1009.3
20260509142503 8 223 4.8 14.5 0.00 0.00 0.00 65 1009.3
20260509142007 8 94 6.4 14.5 0.00 0.00 0.00 65 1009.4
20260509141504 8 130 4.8 16.1 0.00 0.00 0.00 64 1009.3
20260509141006 8 94 4.8 16.1 0.00 0.00 0.00 63 1009.4
20260509140505 8 248 6.4 16.1 0.00 0.00 0.00 62 1009.4
20260509140030 8 32 6.4 16.1 0.00 0.00 0.00 60 1009.5
20260509135504 8 196 8.0 16.1 0.00 0.00 0.00 59 1009.5
20260509135004 8 107 4.8 16.1 0.00 0.00 0.00 57 1009.5
20260509134513 8 169 6.4 16.1 0.00 0.00 0.00 59 1009.5
20260509134003 8 210 8.0 17.7 0.00 0.00 0.00 56 1009.6
20260509133503 8 130 6.4 17.7 0.00 0.00 0.00 56 1009.6
20260509133020 8 119 8.0 17.7 0.00 0.00 0.00 54 1009.6
20260509132505 8 184 6.4 16.1 0.00 0.00 0.00 54 1009.6
20260509132002 8 162 6.4 16.1 0.00 0.00 0.00 54 1009.7
20260509131518 7 167 4.8 17.7 0.00 0.00 0.00 54 1009.7
20260509131005 7 189 8.0 17.7 0.00 0.00 0.00 54 1009.6
20260509130507 7 96 6.4 14.5 0.00 0.00 0.00 56 1009.6
20260509130008 7 132 6.4 14.5 0.00 0.00 0.00 54 1009.6
20260509125509 7 140 8.0 14.5 0.00 0.00 0.00 54 1009.7
20260509125007 7 127 4.8 11.3 0.00 0.00 0.00 56 1009.8
20260509124508 7 137 4.8 11.3 0.00 0.00 0.00 57 1009.9
20260509124004 6 157 3.2 12.9 0.00 0.00 0.00 58 1010.0
20260509123506 6 136 4.8 12.9 0.00 0.00 0.00 57 1009.9
20260509123004 6 80 4.8 9.7 0.00 0.00 0.00 59 1009.9
20260509122503 6 144 3.2 12.9 0.00 0.00 0.00 58 1010.0
20260509122006 6 90 6.4 12.9 0.00 0.00 0.00 58 1010.1
20260509121518 6 128 4.8 14.5 0.00 0.00 0.00 59 1010.0
20260509121003 5 147 3.2 14.5 0.00 0.00 0.00 60 1010.0
20260509120506 5 51 3.2 11.3 0.00 0.00 0.00 60 1010.2
20260509120005 5 141 3.2 11.3 0.00 0.00 0.00 61 1010.1
20260509115506 5 102 4.8 11.3 0.00 0.00 0.00 59 1010.1
20260509115006 5 150 3.2 9.7 0.00 0.00 0.00 59 1010.1
20260509114510 5 107 1.6 9.7 0.00 0.00 0.00 60 1010.1
20260509114004 4 84 3.2 9.7 0.00 0.00 0.00 63 1010.1
20260509113504 4 111 3.2 6.4 0.00 0.00 0.00 64 1010.1
20260509113016 3 113 3.2 6.4 0.00 0.00 0.00 63 1010.0
20260509112504 3 107 3.2 6.4 0.00 0.00 0.00 64 1010.0
20260509112007 3 117 1.6 4.8 0.00 0.00 0.00 69 1010.0
20260509111512 2 121 1.6 4.8 0.00 0.00 0.00 72 1010.0
20260509111007 2 129 1.6 4.8 0.00 0.00 0.00 76 1010.0
20260509110510 2 126 1.6 6.4 0.00 0.00 0.00 73 1010.0
20260509110029 1 110 1.6 6.4 0.00 0.00 0.00 78 1010.1
20260509105507 1 104 1.6 4.8 0.00 0.00 0.00 79 1010.1
20260509105012 0 118 0.0 3.2 0.00 0.00 0.00 83 1010.0
20260509104530 0 113 1.6 3.2 0.00 0.00 0.00 84 1009.9
20260509104003 0 98 1.6 3.2 0.00 0.00 0.00 85 1009.8
20260509103504 0 98 1.6 3.2 0.00 0.00 0.00 85 1009.8
20260509103010 0 78 1.6 3.2 0.00 0.00 0.00 84 1009.8
20260509102505 -1 92 1.6 3.2 0.00 0.00 0.00 86 1009.8
20260509102006 -1 81 1.6 3.2 0.00 0.00 0.00 86 1009.8
20260509101528 -1 85 1.6 3.2 0.00 0.00 0.00 86 1009.7
20260509101007 -1 85 1.6 3.2 0.00 0.00 0.00 86 1009.7
20260509100504 -1 92 1.6 3.2 0.00 0.00 0.00 86 1009.7
20260509100021 -1 90 1.6 3.2 0.00 0.00 0.00 86 1009.8
20260509095510 -1 90 1.6 3.2 0.00 0.00 0.00 86 1009.8
20260509095009 -1 90 3.2 3.2 0.00 0.00 0.00 84 1009.9
20260509094511 -1 90 1.6 3.2 0.00 0.00 0.00 85 1009.9
20260509094006 -1 90 3.2 3.2 0.00 0.00 0.00 85 1009.9
20260509093510 -1 87 3.2 3.2 0.00 0.00 0.00 85 1009.9
20260509093012 -1 88 3.2 3.2 0.00 0.00 0.00 85 1009.9
20260509092504 -1 81 1.6 4.8 0.00 0.00 0.00 86 1010.0
20260509092004 -1 90 3.2 4.8 0.00 0.00 0.00 85 1010.0
20260509091514 -1 90 1.6 3.2 0.00 0.00 0.00 85 1010.0
20260509091005 -1 90 3.2 3.2 0.00 0.00 0.00 85 1010.0
20260509090507 -1 84 1.6 3.2 0.00 0.00 0.00 84 1010.0
20260509090026 -1 94 3.2 3.2 0.00 0.00 0.00 86 1010.0
20260509085507 -1 94 3.2 3.2 0.00 0.00 0.00 85 1009.9
20260509085004 -1 83 3.2 3.2 0.00 0.00 0.00 84 1010.0
20260509084523 0 83 3.2 3.2 0.00 0.00 0.00 82 1009.9
20260509084009 0 76 1.6 3.2 0.00 0.00 0.00 82 1010.0
20260509083507 0 76 1.6 1.6 0.00 0.00 0.00 82 1010.1
20260509083031 0 76 1.6 3.2 0.00 0.00 0.00 82 1010.1
20260509082509 0 76 1.6 3.2 0.00 0.00 0.00 82 1010.1
20260509082012 0 78 1.6 3.2 0.00 0.00 0.00 81 1010.2
20260509081511 0 92 1.6 3.2 0.00 0.00 0.00 82 1010.2
20260509081005 0 85 1.6 3.2 0.00 0.00 0.00 81 1010.2
20260509080504 0 68 1.6 3.2 0.00 0.00 0.00 81 1010.1
20260509080012 0 67 1.6 3.2 0.00 0.00 0.00 80 1010.0
20260509075506 0 67 1.6 3.2 0.00 0.00 0.00 80 1010.0
20260509075007 0 44 3.2 3.2 0.00 0.00 0.00 79 1010.1
20260509074523 0 76 1.6 3.2 0.00 0.00 0.00 79 1010.2
20260509074009 0 66 3.2 4.8 0.00 0.00 0.00 76 1010.2
20260509073506 0 79 1.6 4.8 0.00 0.00 0.00 76 1010.2
20260509073024 0 72 1.6 4.8 0.00 0.00 0.00 77 1010.2
20260509072508 0 64 1.6 3.2 0.00 0.00 0.00 76 1010.2
20260509072010 0 67 1.6 3.2 0.00 0.00 0.00 75 1010.1
20260509071526 1 79 1.6 3.2 0.00 0.00 0.00 75 1010.2
20260509071007 1 90 1.6 4.8 0.00 0.00 0.00 74 1010.3
20260509070505 1 58 3.2 4.8 0.00 0.00 0.00 73 1010.3
20260509070021 1 78 3.2 4.8 0.00 0.00 0.00 74 1010.2
20260509065506 0 72 1.6 4.8 0.00 0.00 0.00 75 1010.2
20260509065007 0 80 3.2 4.8 0.00 0.00 0.00 76 1010.3
20260509064527 0 83 1.6 4.8 0.00 0.00 0.00 77 1010.3
20260509064008 0 92 1.6 4.8 0.00 0.00 0.00 80 1010.5
20260509063509 0 95 1.6 3.2 0.00 0.00 0.00 79 1010.5
20260509063014 0 77 1.6 3.2 0.00 0.00 0.00 78 1010.6
20260509062509 0 86 1.6 4.8 0.00 0.00 0.00 78 1010.6
20260509062012 0 80 1.6 4.8 0.00 0.00 0.00 78 1010.7
20260509061537 0 76 1.6 3.2 0.00 0.00 0.00 77 1010.7
20260509061004 0 75 1.6 3.2 0.00 0.00 0.00 75 1010.7
20260509060508 0 68 1.6 3.2 0.00 0.00 0.00 75 1010.7
20260509060030 1 90 1.6 3.2 0.00 0.00 0.00 74 1010.8
20260509055511 1 90 1.6 3.2 0.00 0.00 0.00 72 1010.9
20260509055005 1 104 1.6 4.8 0.00 0.00 0.00 70 1010.9
20260509054527 1 80 1.6 4.8 0.00 0.00 0.00 71 1010.9
20260509054005 1 105 1.6 4.8 0.00 0.00 0.00 72 1011.0
20260509053505 0 76 1.6 3.2 0.00 0.00 0.00 74 1011.0
20260509053030 1 72 0.0 3.2 0.00 0.00 0.00 73 1011.0
20260509052505 1 66 0.0 3.2 0.00 0.00 0.00 72 1011.0
20260509052009 1 66 1.6 3.2 0.00 0.00 0.00 73 1011.1
20260509051520 1 71 1.6 6.4 0.00 0.00 0.00 71 1011.1
20260509051012 1 42 0.0 6.4 0.00 0.00 0.00 72 1011.1
20260509050505 0 68 3.2 3.2 0.00 0.00 0.00 73 1011.2
20260509050017 0 74 0.0 4.8 0.00 0.00 0.00 74 1011.1
20260509045503 0 74 0.0 4.8 0.00 0.00 0.00 74 1011.0
20260509045005 0 351 0.0 3.2 0.00 0.00 0.00 74 1011.1
20260509044512 0 351 1.6 3.2 0.00 0.00 0.00 73 1011.1
20260509044005 0 351 1.6 1.6 0.00 0.00 0.00 72 1011.1
20260509043508 0 351 1.6 1.6 0.00 0.00 0.00 73 1011.0
20260509043010 0 351 0.0 1.6 0.00 0.00 0.00 71 1011.1
20260509042506 0 351 0.0 3.2 0.00 0.00 0.00 75 1011.1
20260509042006 0 351 1.6 3.2 0.00 0.00 0.00 77 1011.1
20260509041523 0 351 0.0 3.2 0.00 0.00 0.00 76 1011.0
20260509041003 0 351 0.0 3.2 0.00 0.00 0.00 76 1010.8
20260509040508 0 351 0.0 3.2 0.00 0.00 0.00 75 1010.7
20260509040027 0 351 0.0 3.2 0.00 0.00 0.00 76 1010.8
20260509035504 0 351 0.0 3.2 0.00 0.00 0.00 73 1010.8
20260509035005 0 351 0.0 3.2 0.00 0.00 0.00 73 1010.8
20260509034524 0 351 0.0 3.2 0.00 0.00 0.00 73 1010.8
20260509034004 0 351 0.0 3.2 0.00 0.00 0.00 72 1010.8
20260509033508 1 351 0.0 1.6 0.00 0.00 0.00 70 1010.9
20260509033012 1 351 0.0 1.6 0.00 0.00 0.00 68 1010.9
20260509032503 1 351 0.0 3.2 0.00 0.00 0.00 67 1011.0
20260509032011 1 351 0.0 3.2 0.00 0.00 0.00 68 1011.0
20260509031516 1 351 0.0 3.2 0.00 0.00 0.00 63 1011.0
20260509031008 1 351 0.0 3.2 0.00 0.00 0.00 67 1011.0
20260509030514 1 351 0.0 3.2 0.00 0.00 0.00 64 1011.1
20260509030013 1 351 0.0 1.6 0.00 0.00 0.00 65 1011.1
20260509025507 1 351 0.0 3.2 0.00 0.00 0.00 64 1011.1
20260509025006 1 351 0.0 3.2 0.00 0.00 0.00 60 1011.1
20260509024528 1 351 0.0 3.2 0.00 0.00 0.00 66 1011.1
20260509024009 1 351 1.6 3.2 0.00 0.00 0.00 70 1011.1
20260509023504 1 5 0.0 1.6 0.00 0.00 0.00 70 1011.1
20260509023033 1 5 0.0 3.2 0.00 0.00 0.00 67 1011.0